Waarnemingen

Advertentie
Mijn weer
Storlien-Visjovalen A, Zweden (2207): temperatuur & dauwpunt: 12.01.2020 00:00:00 - 18.01.2020 00:00:00 (CET)Storlien-Visjovalen A, Zweden (2207): windsnelheid & windstoten: 12.01.2020 00:00:00 - 18.01.2020 00:00:00 (CET)Storlien-Visjovalen A, Zweden (2207): windrichting: 12.01.2020 00:00:00 - 18.01.2020 00:00:00 (CET)Storlien-Visjovalen A, Zweden (2207): luchtdruk: 12.01.2020 00:00:00 - 18.01.2020 00:00:00 (CET)Storlien-Visjovalen A, Zweden (2207): zicht: 12.01.2020 00:00:00 - 18.01.2020 00:00:00 (CET)Storlien-Visjovalen A, Zweden (2207): neerslag: 12.01.2020 00:00:00 - 18.01.2020 00:00:00 (CET)
Datum & Tijd tt [°C] td [°C] ff [km/u] ff [kn] fx [km/u] fx [kn] dd ppp [hPa] vv [km] rr [mm]
18.01.2020 00:00:00 - - - - - - - - - -
17.01.2020 23:00:00 - -0,2 19 11 34 19 Z 1002,0 50 0,0
17.01.2020 22:00:00 - -0,2 19 11 44 24 Z 1001,9 50 0,0
17.01.2020 21:00:00 - 0,0 22 12 42 23 ZZW 1002,4 50 0,0
17.01.2020 20:00:00 3,4 -0,2 17 9 42 23 Z 1003,0 50 0,0
17.01.2020 19:00:00 3,3 0,0 19 10 43 23 ZZW 1003,4 50 0,0
17.01.2020 18:00:00 3,1 -0,5 8 4 46 25 Z 1004,1 50 0,0
17.01.2020 17:00:00 3,3 -0,9 21 12 48 26 ZW 1003,3 50 0,0
17.01.2020 16:00:00 3,3 -0,7 21 12 46 25 ZZW 1003,6 50 0,0
17.01.2020 15:00:00 3,3 -0,9 22 12 46 25 ZZW 1004,4 50 0,0
17.01.2020 14:00:00 3,3 -1,3 24 13 49 26 ZZW 1004,4 50 0,0
17.01.2020 13:00:00 3,0 -1,4 27 15 52 28 ZZW 1004,1 50 0,0
17.01.2020 12:00:00 2,8 -1,4 18 10 51 28 ZZW 1004,2 50 0,0
17.01.2020 11:00:00 3,0 -1,6 29 16 56 30 ZZW 1003,0 50 0,0
17.01.2020 10:00:00 2,7 -1,3 23 12 50 27 ZZW 1003,9 50 0,0
17.01.2020 09:00:00 1,7 -0,2 17 9 53 29 ZZW 1004,2 12 0,1
17.01.2020 08:00:00 2,6 -1,8 19 11 43 23 ZZW 1003,6 50 0,0
17.01.2020 07:00:00 1,9 -2,8 16 9 45 24 ZZW 1005,4 50 0,0
17.01.2020 06:00:00 1,8 -4,1 15 8 46 25 Z 1006,3 50 0,0
17.01.2020 05:00:00 1,7 -3,8 22 12 56 31 ZW 1006,4 50 0,0
17.01.2020 04:00:00 1,5 -3,8 21 11 43 23 ZZW 1007,7 50 0,0
17.01.2020 03:00:00 1,5 -5,2 21 11 48 26 ZW 1008,7 50 0,0
17.01.2020 02:00:00 1,3 -5,2 23 13 44 24 ZZW 1008,9 50 0,0
17.01.2020 01:00:00 0,5 -5,7 22 12 40 22 ZZW 1009,4 50 0,0
17.01.2020 00:00:00 -0,9 -6,7 10 5 24 13 Z 1009,9 50 0,0
16.01.2020 23:00:00 -0,6 -6,0 13 7 25 13 ZW 1009,3 50 0,0
16.01.2020 22:00:00 0,1 -4,9 14 8 32 17 ZZW 1009,5 50 0,0
16.01.2020 21:00:00 1,9 -3,6 16 8 29 16 ZW 1008,2 50 0,0
16.01.2020 20:00:00 2,2 -1,1 13 7 31 17 W 1007,2 50 0,0
16.01.2020 19:00:00 2,7 -0,9 11 6 27 15 W 1006,6 50 0,0
16.01.2020 18:00:00 2,2 -0,2 15 8 36 19 WZW 1005,8 45 0,0
16.01.2020 17:00:00 1,3 -0,2 13 7 39 21 WZW 1004,8 16 0,1
16.01.2020 16:00:00 1,8 -1,5 11 6 35 19 WZW 1004,1 50 0,1
16.01.2020 15:00:00 1,4 -1,0 14 8 35 19 WZW 1003,7 3,9 0,1
16.01.2020 14:00:00 2,0 -2,0 11 6 31 17 WZW 1002,7 4,4 0,0
16.01.2020 13:00:00 1,4 -3,7 12 7 35 19 ZW 1001,5 50 0,0
16.01.2020 12:00:00 -0,5 -4,9 12 7 29 15 ZW 1001,2 50 0,0
16.01.2020 11:00:00 -0,7 -4,6 16 9 39 21 ZW 1000,1 50 0,0
16.01.2020 10:00:00 0,2 -3,9 19 11 41 22 ZZW 998,4 50 0,0
16.01.2020 09:00:00 0,1 -3,8 20 11 41 22 ZZW 996,9 50 0,0
16.01.2020 08:00:00 0,8 -3,5 24 13 56 30 ZZW 995,5 50 0,0
16.01.2020 07:00:00 0,5 -3,6 21 12 51 28 ZZW 994,2 50 0,0
16.01.2020 06:00:00 0,0 -3,7 21 12 46 25 ZZW 993,6 50 0,0
16.01.2020 05:00:00 -0,6 -4,5 18 10 45 24 ZZW 993,1 50 0,0
16.01.2020 04:00:00 -0,6 -4,5 18 10 47 25 ZZW 992,7 50 -
16.01.2020 03:00:00 -0,5 -4,9 27 14 51 27 ZW 992,0 50 0,0
16.01.2020 02:00:00 -1,7 -6,1 25 13 46 25 ZW 992,2 50 0,0
16.01.2020 01:00:00 -1,2 -6,0 24 13 43 23 ZW 991,9 50 0,0
16.01.2020 00:00:00 -1,7 -6,4 13 7 45 25 ZZW 992,3 50 0,0
15.01.2020 23:00:00 -0,9 -6,1 26 14 46 25 ZZW 991,4 35 0,0
15.01.2020 22:00:00 -1,3 -6,8 22 12 45 25 ZZW 991,1 50 0,0
15.01.2020 21:00:00 -0,8 -6,4 23 12 45 24 ZZW 990,7 41 0,0
15.01.2020 20:00:00 -1,6 -6,5 19 11 38 21 ZW 990,7 50 0,0
15.01.2020 19:00:00 -2,0 -6,4 20 11 39 21 Z 990,3 50 0,0
15.01.2020 18:00:00 -2,1 -7,0 21 11 34 19 Z 989,6 50 0,0
15.01.2020 17:00:00 -2,3 -7,2 15 8 31 17 ZZW 988,9 50 0,0
15.01.2020 16:00:00 -2,8 -8,1 13 7 28 15 ZW 988,4 50 0,0
15.01.2020 15:00:00 -1,0 -6,0 15 8 29 16 ZW 987,1 50 0,0
15.01.2020 14:00:00 -0,4 -4,8 12 7 31 17 ZW 986,1 50 0,0
15.01.2020 13:00:00 0,6 -4,1 16 9 35 19 W 984,6 50 0,0
15.01.2020 12:00:00 0,6 -2,5 23 12 48 26 W 983,5 50 0,0
15.01.2020 11:00:00 0,5 -2,1 6 3 22 12 ZZW 982,0 37 0,0
15.01.2020 10:00:00 0,1 -1,8 8 5 29 16 ZW 980,7 50 0,0
15.01.2020 09:00:00 -0,5 -1,9 12 7 28 15 ZZW 979,4 39 0,0
15.01.2020 08:00:00 -0,1 -0,7 9 5 29 15 Z 979,1 3,0 1,1
15.01.2020 07:00:00 0,7 -1,9 10 6 29 15 Z 979,1 3,7 0,5
15.01.2020 06:00:00 1,6 -2,7 11 6 42 23 Z 979,1 6 0,3
15.01.2020 05:00:00 1,2 -3,1 19 11 35 19 ZZO 979,9 15 0,0
15.01.2020 04:00:00 0,9 -2,5 16 9 44 24 Z 981,0 3,0 0,0
15.01.2020 03:00:00 0,8 -4,8 25 14 48 26 Z 982,1 50 0,0
15.01.2020 02:00:00 0,9 -6,2 18 10 42 23 Z 983,4 50 0,0
15.01.2020 01:00:00 -0,4 -7,0 14 7 28 15 ZZW 984,2 50 0,0
15.01.2020 00:00:00 -0,7 -6,5 14 7 36 19 Z 985,2 50 0,0
14.01.2020 23:00:00 -0,5 -6,3 18 10 42 23 ZZW 985,9 50 0,0
14.01.2020 22:00:00 -1,9 -6,5 14 8 29 16 ZZW 986,0 50 0,0
14.01.2020 21:00:00 -1,4 -5,8 15 8 32 18 ZZW 985,7 50 0,0
14.01.2020 20:00:00 -0,4 -5,6 16 9 36 20 ZW 984,9 50 0,0
14.01.2020 19:00:00 0,8 -3,3 21 11 39 21 ZZW 984,1 50 0,0
14.01.2020 18:00:00 0,9 -3,2 16 9 40 22 ZZW 983,5 50 0,0
14.01.2020 17:00:00 1,3 -3,0 21 11 44 24 ZZW 982,9 50 0,0
14.01.2020 16:00:00 1,1 -3,2 20 11 50 27 ZZW 982,8 50 0,0
14.01.2020 15:00:00 1,1 -3,0 22 12 47 26 ZZW 982,8 50 0,0
14.01.2020 14:00:00 1,0 -2,9 19 11 48 26 ZZW 982,1 50 0,0
14.01.2020 13:00:00 0,9 -2,5 21 12 53 29 ZZW 981,9 50 0,0
14.01.2020 12:00:00 1,0 -2,4 23 13 57 31 Z 981,9 50 0,0
14.01.2020 11:00:00 1,7 -2,8 26 14 53 29 Z 981,9 50 0,0
14.01.2020 10:00:00 1,7 -3,0 27 15 57 31 Z 981,8 50 0,0
14.01.2020 09:00:00 1,3 -2,6 27 15 58 32 Z 982,8 19 0,0
14.01.2020 08:00:00 1,5 -3,4 29 16 72 39 Z 983,7 50 0,0
14.01.2020 07:00:00 1,2 -3,1 31 17 55 30 Z 984,8 50 0,0
14.01.2020 06:00:00 0,6 -3,7 29 16 52 28 ZO 987,4 50 0,0
14.01.2020 05:00:00 1,4 -3,9 21 11 51 27 Z 989,0 50 0,0
14.01.2020 04:00:00 0,3 -4,3 22 12 52 28 ZZW 990,9 50 0,0
14.01.2020 03:00:00 -0,1 -5,1 29 15 59 32 Z 991,6 20 0,0
14.01.2020 02:00:00 -0,9 -5,7 34 18 59 32 Z 993,3 8 0,0
14.01.2020 01:00:00 -0,8 -7,6 27 15 50 27 Z 994,5 22 0,0
14.01.2020 00:00:00 -1,3 -9,2 21 11 46 25 ZZW 995,1 50 0,0
13.01.2020 23:00:00 -1,5 -8,5 27 15 51 27 ZZW 995,8 48 0,0
13.01.2020 22:00:00 -1,6 -7,9 23 12 46 25 Z 997,5 50 0,0
13.01.2020 21:00:00 -1,5 -7,4 17 9 38 20 ZZW 997,7 50 0,0
13.01.2020 20:00:00 -2,0 -7,3 20 11 42 23 ZZW 998,1 50 0,0
13.01.2020 19:00:00 -2,2 -7,3 20 11 44 24 ZW 997,8 50 0,0
13.01.2020 18:00:00 -2,0 -7,3 19 10 46 25 ZZW 997,6 50 0,0
13.01.2020 17:00:00 -1,9 -7,2 19 10 38 20 ZZW 997,4 50 0,0
13.01.2020 16:00:00 -1,3 -7,4 18 10 40 22 ZZW 997,7 50 0,0
13.01.2020 15:00:00 -1,2 -7,3 22 12 43 23 Z 997,6 50 0,0
13.01.2020 14:00:00 -1,0 -6,9 18 10 33 18 Z 997,7 50 0,0
13.01.2020 13:00:00 -0,8 -6,8 20 11 38 21 ZZW 997,6 50 0,0
13.01.2020 12:00:00 -0,9 -6,7 19 10 39 21 Z 997,4 50 0,0
13.01.2020 11:00:00 -0,8 -7,0 10 6 40 22 ZZW 997,6 50 0,0
13.01.2020 10:00:00 -1,7 -7,2 14 8 36 19 ZZW 997,7 50 0,0
13.01.2020 09:00:00 -3,0 -8,3 14 8 39 21 ZZW 998,2 50 0,0
13.01.2020 08:00:00 -3,7 -8,7 12 6 42 23 ZW 998,3 50 0,0
13.01.2020 07:00:00 -2,7 -8,2 18 10 40 22 ZZW 998,1 50 0,0
13.01.2020 06:00:00 -3,1 -8,6 16 8 34 18 ZZW 998,0 50 0,0
13.01.2020 05:00:00 -3,2 -8,5 14 8 28 15 ZZW 998,0 50 0,0
13.01.2020 04:00:00 -3,7 -9,1 13 7 24 13 ZW 998,0 50 0,0
13.01.2020 03:00:00 -3,3 -9,1 14 8 27 15 ZW 997,9 50 0,0
13.01.2020 02:00:00 -2,9 -8,6 14 8 31 17 ZW 997,6 50 0,0
13.01.2020 01:00:00 -4,0 -8,7 14 7 26 14 ZW 997,6 50 0,0
13.01.2020 00:00:00 -3,5 -7,8 13 7 27 15 ZW 997,2 50 0,0
12.01.2020 23:00:00 -3,3 -7,4 9 5 22 12 ZZW 996,6 50 0,0
12.01.2020 22:00:00 -3,6 -7,6 11 6 19 11 ZZW 996,5 50 0,0
12.01.2020 21:00:00 -2,8 -6,8 11 6 22 12 ZW 996,1 50 0,0
12.01.2020 20:00:00 -2,4 -6,2 11 6 31 17 WZW 995,9 50 0,0
12.01.2020 19:00:00 -1,6 -6,4 9 5 24 13 ZW 995,6 50 0,0
12.01.2020 18:00:00 -1,6 -6,2 9 5 24 13 WZW 995,8 32 0,0
12.01.2020 17:00:00 -2,7 -8,0 8 5 23 13 ZW 995,4 50 0,0
12.01.2020 16:00:00 -3,6 -7,9 8 5 28 15 ZZW 995,7 50 0,0
12.01.2020 15:00:00 -4,3 -8,4 13 7 28 15 ZW 995,7 50 0,0
12.01.2020 14:00:00 -2,9 -6,4 8 4 27 14 ZW 995,7 50 0,0
12.01.2020 13:00:00 -0,7 -4,2 16 9 40 22 W 995,3 23 0,0
12.01.2020 12:00:00 -1,0 -4,0 19 10 37 20 W 994,7 35 0,0
12.01.2020 11:00:00 -1,4 -3,9 19 10 39 21 W 994,6 50 0,0
12.01.2020 10:00:00 -1,6 -2,7 11 6 27 14 WZW 994,2 50 0,0
12.01.2020 09:00:00 -1,3 -1,7 14 8 31 17 W 993,7 0,9 0,7
12.01.2020 08:00:00 -0,9 -2,2 10 6 35 19 ZW 993,0 2,3 0,1
12.01.2020 07:00:00 -0,4 -2,6 8 5 21 12 ZW 992,6 50 0,0
12.01.2020 06:00:00 -0,5 -2,4 9 5 36 19 WZW 992,5 37 0,0
12.01.2020 05:00:00 0,0 -1,0 19 11 43 23 W 992,7 12 0,3
12.01.2020 04:00:00 -0,2 -0,5 14 8 49 26 W 993,2 7 0,1
12.01.2020 03:00:00 0,4 -1,0 26 14 52 28 W 992,6 17 0,0
12.01.2020 02:00:00 0,4 0,0 27 15 58 31 W 991,7 1,0 0,1
12.01.2020 01:00:00 1,4 -0,5 18 10 39 21 W 991,0 39 0,0
12.01.2020 00:00:00 1,2 -0,1 13 7 35 19 W 990,4 20 0,2

tt = temperatuur
td = dauwpunt
ff = windsnelheid
fx = windstoten
dd = windrichting
ppp = luchtdruk
vv = zicht
rr = neerslag

Weerstations in de omgeving